Time,TemperatureF,DewpointF,PressureIn,WindDirection,WindDirectionDegrees,WindSpeedMPH,WindSpeedGustMPH,Humidity,HourlyPrecipIn,Conditions,Clouds,dailyrainin,SoftwareType,DateUTC
2013-03-23 00:02:00,49.1,41.5,29.78,ENE,70,3.0,4.0,75,0.00,,---,0.00,VWS V14.01,2013-03-23 05:02:00,
2013-03-23 00:05:00,49.1,41.5,29.79,ENE,73,2.0,4.0,75,0.00,,---,0.00,VWS V14.01,2013-03-23 05:05:00,
2013-03-23 00:08:00,49.1,41.5,29.79,East,84,2.0,4.0,75,0.00,,---,0.00,VWS V14.01,2013-03-23 05:08:00,
2013-03-23 00:14:00,49.1,41.5,29.81,ENE,64,1.0,4.0,75,0.00,,---,0.00,VWS V14.01,2013-03-23 05:14:00,
2013-03-23 00:17:00,49.1,41.9,29.80,North,349,1.0,4.0,76,0.00,,---,0.00,VWS V14.01,2013-03-23 05:17:00,
2013-03-23 00:20:00,49.1,41.9,29.80,North,5,0.0,4.0,76,0.00,,---,0.00,VWS V14.01,2013-03-23 05:20:00,
2013-03-23 00:29:00,49.1,41.9,29.79,NNE,31,0.0,4.0,76,0.00,,---,0.00,VWS V14.01,2013-03-23 05:29:00,
2013-03-23 00:32:00,49.1,41.5,29.79,NNE,31,1.0,2.0,75,0.00,,---,0.00,VWS V14.01,2013-03-23 05:32:00,
2013-03-23 00:35:00,49.1,41.9,29.78,NE,36,2.0,3.0,76,0.00,,---,0.00,VWS V14.01,2013-03-23 05:35:00,
2013-03-23 00:39:00,49.1,41.9,29.78,NE,47,1.0,4.0,76,0.00,,---,0.00,VWS V14.01,2013-03-23 05:39:00,
2013-03-23 00:42:00,49.1,41.9,29.78,NE,53,0.0,4.0,76,0.00,,---,0.00,VWS V14.01,2013-03-23 05:42:00,
2013-03-23 00:48:00,49.1,42.2,29.79,NE,46,2.0,4.0,77,0.00,,---,0.00,VWS V14.01,2013-03-23 05:48:00,
2013-03-23 00:51:00,49.2,42.3,29.79,ENE,64,0.0,4.0,77,0.00,,---,0.00,VWS V14.01,2013-03-23 05:51:00,
2013-03-23 00:54:00,49.2,42.3,29.81,NW,316,1.0,4.0,77,0.00,,---,0.00,VWS V14.01,2013-03-23 05:54:00,
2013-03-23 00:57:00,49.2,42.0,29.81,NW,316,2.0,4.0,76,0.00,,---,0.00,VWS V14.01,2013-03-23 05:57:00,
2013-03-23 01:01:00,49.2,41.6,29.80,NNW,329,3.0,4.0,75,0.00,,---,0.00,VWS V14.01,2013-03-23 06:01:00,
2013-03-23 01:03:00,49.1,41.5,29.79,NNE,32,0.0,5.0,75,0.00,,---,0.00,VWS V14.01,2013-03-23 06:03:00,
2013-03-23 01:09:00,49.1,41.5,29.79,NNE,32,0.0,5.0,75,0.00,,---,0.00,VWS V14.01,2013-03-23 06:09:00,
2013-03-23 01:15:00,49.0,41.4,29.80,NNE,32,0.0,5.0,75,0.00,,---,0.00,VWS V14.01,2013-03-23 06:15:00,
2013-03-23 01:18:00,49.0,41.8,29.80,NNE,13,2.0,5.0,76,0.00,,---,0.00,VWS V14.01,2013-03-23 06:18:00,
2013-03-23 01:24:00,49.0,41.8,29.78,ENE,59,4.0,6.0,76,0.00,,---,0.00,VWS V14.01,2013-03-23 06:24:00,
2013-03-23 01:27:00,48.9,41.7,29.81,NW,318,5.0,6.0,76,0.00,,---,0.00,VWS V14.01,2013-03-23 06:27:00,
2013-03-23 01:30:00,48.9,41.7,29.81,NW,319,2.0,6.0,76,0.00,,---,0.00,VWS V14.01,2013-03-23 06:30:00,
2013-03-23 01:33:00,48.9,41.7,29.79,NE,35,3.0,3.0,76,0.00,,---,0.00,VWS V14.01,2013-03-23 06:33:00,
2013-03-23 01:36:00,48.9,41.7,29.81,NW,315,3.0,4.0,76,0.00,,---,0.00,VWS V14.01,2013-03-23 06:36:00,
2013-03-23 01:39:00,48.9,41.7,29.80,NNE,19,2.0,5.0,76,0.00,,---,0.00,VWS V14.01,2013-03-23 06:39:00,
2013-03-23 01:42:00,48.9,41.7,29.83,NW,309,5.0,7.0,76,0.00,,---,0.00,VWS V14.01,2013-03-23 06:42:00,
2013-03-23 01:48:00,48.9,41.7,29.82,North,360,3.0,7.0,76,0.00,,---,0.00,VWS V14.01,2013-03-23 06:48:00,
2013-03-23 01:51:00,48.8,41.6,29.81,NNW,342,3.0,7.0,76,0.00,,---,0.00,VWS V14.01,2013-03-23 06:51:00,
2013-03-23 01:57:00,48.8,41.6,29.81,NNE,17,0.0,7.0,76,0.00,,---,0.00,VWS V14.01,2013-03-23 06:57:00,
2013-03-23 02:00:00,48.7,41.5,29.82,NW,307,2.0,7.0,76,0.00,,---,0.00,VWS V14.01,2013-03-23 07:00:00,
2013-03-23 02:03:00,48.7,41.5,29.82,NW,307,2.0,2.0,76,0.00,,---,0.00,VWS V14.01,2013-03-23 07:03:00,
2013-03-23 02:07:00,48.7,41.5,29.81,NW,307,0.0,2.0,76,0.00,,---,0.00,VWS V14.01,2013-03-23 07:07:00,
2013-03-23 02:10:00,48.7,41.5,29.79,East,89,5.0,6.0,76,0.00,,---,0.00,VWS V14.01,2013-03-23 07:10:00,
2013-03-23 02:13:00,48.6,41.4,29.79,East,81,1.0,6.0,76,0.00,,---,0.00,VWS V14.01,2013-03-23 07:13:00,
2013-03-23 02:16:00,48.5,41.3,29.80,ENE,57,1.0,6.0,76,0.00,,---,0.00,VWS V14.01,2013-03-23 07:16:00,
2013-03-23 02:25:00,48.5,41.3,29.79,NE,55,1.0,6.0,76,0.00,,---,0.00,VWS V14.01,2013-03-23 07:25:00,
2013-03-23 02:28:00,48.5,41.6,29.79,NE,55,2.0,6.0,77,0.00,,---,0.00,VWS V14.01,2013-03-23 07:28:00,
2013-03-23 02:31:00,48.5,41.6,29.78,NE,56,0.0,6.0,77,0.00,,---,0.00,VWS V14.01,2013-03-23 07:31:00,
2013-03-23 02:34:00,48.5,41.6,29.79,WNW,294,1.0,5.0,77,0.00,,---,0.00,VWS V14.01,2013-03-23 07:34:00,
2013-03-23 02:37:00,48.5,41.6,29.78,North,360,1.0,5.0,77,0.00,,---,0.00,VWS V14.01,2013-03-23 07:37:00,
2013-03-23 02:40:00,48.5,41.6,29.78,North,360,0.0,5.0,77,0.00,,---,0.00,VWS V14.01,2013-03-23 07:40:00,
2013-03-23 02:43:00,48.5,41.6,29.79,NW,325,5.0,5.0,77,0.00,,---,0.00,VWS V14.01,2013-03-23 07:43:00,
2013-03-23 02:49:00,48.5,41.6,29.78,NNW,343,3.0,8.0,77,0.00,,---,0.00,VWS V14.01,2013-03-23 07:49:00,
2013-03-23 02:52:00,48.4,41.5,29.78,North,355,3.0,8.0,77,0.00,,---,0.00,VWS V14.01,2013-03-23 07:52:00,
2013-03-23 02:55:00,48.3,41.4,29.79,NNW,330,5.0,8.0,77,0.00,,---,0.00,VWS V14.01,2013-03-23 07:55:00,
2013-03-23 03:01:00,48.2,41.3,29.77,NNW,340,5.0,6.0,77,0.00,,---,0.00,VWS V14.01,2013-03-23 08:01:00,
2013-03-23 03:04:00,48.1,41.2,29.77,NNW,330,4.0,6.0,77,0.00,,---,0.00,VWS V14.01,2013-03-23 08:04:00,
2013-03-23 03:07:00,48.0,41.2,29.77,North,360,4.0,6.0,77,0.00,,---,0.00,VWS V14.01,2013-03-23 08:07:00,
2013-03-23 03:10:00,47.9,41.4,29.77,NNE,22,2.0,6.0,78,0.00,,---,0.00,VWS V14.01,2013-03-23 08:10:00,
2013-03-23 03:16:00,47.8,41.3,29.76,North,11,3.0,7.0,78,0.00,,---,0.00,VWS V14.01,2013-03-23 08:16:00,
2013-03-23 03:19:00,47.9,41.4,29.75,NE,51,2.0,7.0,78,0.00,,---,0.00,VWS V14.01,2013-03-23 08:19:00,
2013-03-23 03:25:00,47.8,41.3,29.75,North,360,4.0,8.0,78,0.00,,---,0.00,VWS V14.01,2013-03-23 08:25:00,
2013-03-23 03:28:00,47.8,41.3,29.76,NNW,337,3.0,8.0,78,0.00,,---,0.00,VWS V14.01,2013-03-23 08:28:00,
2013-03-23 03:31:00,47.8,41.3,29.75,North,11,4.0,8.0,78,0.00,,---,0.00,VWS V14.01,2013-03-23 08:31:00,
2013-03-23 03:34:00,47.8,41.3,29.75,North,5,4.0,6.0,78,0.00,,---,0.00,VWS V14.01,2013-03-23 08:34:00,
2013-03-23 03:41:00,47.8,41.6,29.77,NNW,342,6.0,6.0,79,0.00,,---,0.00,VWS V14.01,2013-03-23 08:41:00,
2013-03-23 03:44:00,47.8,41.3,29.82,WNW,290,6.0,14.0,78,0.00,,---,0.00,VWS V14.01,2013-03-23 08:44:00,
2013-03-23 03:47:00,47.9,41.4,29.80,NNW,332,5.0,14.0,78,0.00,,---,0.00,VWS V14.01,2013-03-23 08:47:00,
2013-03-23 03:50:00,47.9,41.4,29.76,North,5,4.0,14.0,78,0.00,,---,0.00,VWS V14.01,2013-03-23 08:50:00,
2013-03-23 03:53:00,47.9,41.7,29.77,NE,37,3.0,14.0,79,0.00,,---,0.00,VWS V14.01,2013-03-23 08:53:00,
2013-03-23 03:59:00,47.4,42.2,29.76,NE,56,2.0,14.0,82,0.00,,---,0.00,VWS V14.01,2013-03-23 08:59:00,
2013-03-23 04:02:00,47.1,42.5,29.74,East,83,5.0,10.0,84,0.00,,---,0.00,VWS V14.01,2013-03-23 09:02:00,
2013-03-23 04:05:00,46.9,42.6,29.75,ESE,107,4.0,10.0,85,0.00,,---,0.00,VWS V14.01,2013-03-23 09:05:00,
2013-03-23 04:08:00,46.8,42.5,29.76,SE,141,3.0,10.0,85,0.00,,---,0.00,VWS V14.01,2013-03-23 09:08:00,
2013-03-23 04:14:00,46.7,43.0,29.76,SE,127,0.0,10.0,87,0.00,,---,0.00,VWS V14.01,2013-03-23 09:14:00,
2013-03-23 04:17:00,46.7,43.0,29.77,SE,132,0.0,10.0,87,0.00,,---,0.00,VWS V14.01,2013-03-23 09:17:00,
2013-03-23 04:20:00,46.8,43.4,29.79,SE,139,1.0,10.0,88,0.00,,---,0.00,VWS V14.01,2013-03-23 09:20:00,
2013-03-23 04:23:00,46.9,43.5,29.81,WNW,294,4.0,10.0,88,0.00,,---,0.00,VWS V14.01,2013-03-23 09:23:00,
2013-03-23 04:29:00,46.9,43.5,29.80,WNW,287,4.0,10.0,88,0.00,,---,0.00,VWS V14.01,2013-03-23 09:29:00,
2013-03-23 04:32:00,46.9,43.5,29.80,WNW,284,0.0,1.0,88,0.00,,---,0.00,VWS V14.01,2013-03-23 09:32:00,
2013-03-23 04:35:00,46.8,43.4,29.79,NNW,336,3.0,3.0,88,0.00,,---,0.00,VWS V14.01,2013-03-23 09:35:00,
2013-03-23 04:38:00,46.9,43.5,29.81,SW,215,4.0,5.0,88,0.00,,---,0.00,VWS V14.01,2013-03-23 09:38:00,
2013-03-23 04:41:00,46.8,43.7,29.80,SSE,154,7.0,7.0,89,0.00,,---,0.00,VWS V14.01,2013-03-23 09:41:00,
2013-03-23 04:44:00,46.7,43.9,29.78,ESE,122,3.0,8.0,90,0.00,,---,0.00,VWS V14.01,2013-03-23 09:44:00,
2013-03-23 04:47:00,46.7,43.9,29.77,ESE,110,3.0,8.0,90,0.00,,---,0.00,VWS V14.01,2013-03-23 09:47:00,
2013-03-23 04:50:00,46.8,44.0,29.76,ESE,103,2.0,8.0,90,0.00,,---,0.00,VWS V14.01,2013-03-23 09:50:00,
2013-03-23 04:53:00,46.8,44.0,29.76,SE,140,6.0,8.0,90,0.00,,---,0.00,VWS V14.01,2013-03-23 09:53:00,
2013-03-23 04:59:00,46.6,43.8,29.77,SSE,165,4.0,9.0,90,0.00,,---,0.00,VWS V14.01,2013-03-23 09:59:00,
2013-03-23 05:02:00,46.6,43.8,29.75,East,92,6.0,6.0,90,0.00,,---,0.00,VWS V14.01,2013-03-23 10:02:00,
2013-03-23 05:08:00,46.7,43.9,29.72,ESE,111,9.0,10.0,90,0.00,,---,0.00,VWS V14.01,2013-03-23 10:08:00,
2013-03-23 05:11:00,46.6,43.8,29.71,ESE,118,5.0,11.0,90,0.01,,---,0.01,VWS V14.01,2013-03-23 10:11:00,
2013-03-23 05:14:00,46.5,43.4,29.72,SE,127,6.0,11.0,89,0.01,,---,0.01,VWS V14.01,2013-03-23 10:14:00,
2013-03-23 05:18:00,46.5,43.4,29.73,SSE,167,6.0,11.0,89,0.01,,---,0.01,VWS V14.01,2013-03-23 10:18:00,
2013-03-23 05:21:00,46.4,43.6,29.73,SE,139,8.0,11.0,90,0.01,,---,0.01,VWS V14.01,2013-03-23 10:21:00,
2013-03-23 05:24:00,46.4,43.6,29.72,SE,136,8.0,13.0,90,0.01,,---,0.01,VWS V14.01,2013-03-23 10:24:00,
2013-03-23 05:27:00,46.4,43.6,29.74,NNW,327,6.0,13.0,90,0.01,,---,0.01,VWS V14.01,2013-03-23 10:27:00,
2013-03-23 05:30:00,46.4,43.6,29.73,East,83,3.0,13.0,90,0.01,,---,0.01,VWS V14.01,2013-03-23 10:30:00,
2013-03-23 05:33:00,46.4,43.6,29.72,SSE,163,6.0,8.0,90,0.01,,---,0.01,VWS V14.01,2013-03-23 10:33:00,
2013-03-23 05:36:00,46.4,43.6,29.73,North,355,4.0,8.0,90,0.01,,---,0.01,VWS V14.01,2013-03-23 10:36:00,
2013-03-23 05:42:00,46.5,43.7,29.73,NNW,329,7.0,8.0,90,0.01,,---,0.01,VWS V14.01,2013-03-23 10:42:00,
2013-03-23 05:45:00,46.5,43.7,29.74,NW,318,0.0,9.0,90,0.01,,---,0.01,VWS V14.01,2013-03-23 10:45:00,
2013-03-23 05:54:00,46.5,44.0,29.76,West,279,0.0,9.0,91,0.01,,---,0.01,VWS V14.01,2013-03-23 10:54:00,
2013-03-23 05:57:00,46.4,43.9,29.77,West,277,2.0,9.0,91,0.01,,---,0.01,VWS V14.01,2013-03-23 10:57:00,
2013-03-23 06:00:00,46.5,44.0,29.79,West,278,2.0,9.0,91,0.01,,---,0.01,VWS V14.01,2013-03-23 11:00:00,
2013-03-23 06:03:00,46.4,43.9,29.76,SE,146,7.0,9.0,91,0.01,,---,0.01,VWS V14.01,2013-03-23 11:03:00,
2013-03-23 06:09:00,46.2,44.0,29.77,SE,145,4.0,15.0,92,0.01,,---,0.01,VWS V14.01,2013-03-23 11:09:00,
2013-03-23 06:15:00,46.1,44.2,29.74,SSE,147,6.0,15.0,93,0.01,,---,0.01,VWS V14.01,2013-03-23 11:15:00,
2013-03-23 06:18:00,46.0,44.1,29.73,SE,124,9.0,15.0,93,0.01,,---,0.01,VWS V14.01,2013-03-23 11:18:00,
2013-03-23 06:21:00,46.0,44.1,29.70,SE,134,15.0,17.0,93,0.01,,---,0.01,VWS V14.01,2013-03-23 11:21:00,
2013-03-23 06:27:00,45.9,44.0,29.69,SE,130,11.0,19.0,93,0.01,,---,0.01,VWS V14.01,2013-03-23 11:27:00,
2013-03-23 06:31:00,45.9,44.0,29.68,SE,124,14.0,19.0,93,0.01,,---,0.01,VWS V14.01,2013-03-23 11:31:00,
2013-03-23 06:36:00,45.8,43.9,29.67,SE,136,7.0,18.0,93,0.00,,---,0.01,VWS V14.01,2013-03-23 11:36:00,
2013-03-23 06:39:00,45.8,43.9,29.68,ESE,123,11.0,18.0,93,0.00,,---,0.01,VWS V14.01,2013-03-23 11:39:00,
2013-03-23 06:42:00,45.9,44.0,29.71,SW,223,9.0,18.0,93,0.00,,---,0.01,VWS V14.01,2013-03-23 11:42:00,
2013-03-23 06:45:00,46.1,44.2,29.74,NW,306,15.0,18.0,93,0.01,,---,0.02,VWS V14.01,2013-03-23 11:45:00,
2013-03-23 06:48:00,46.2,44.3,29.74,West,268,5.0,18.0,93,0.01,,---,0.02,VWS V14.01,2013-03-23 11:48:00,
2013-03-23 06:51:00,46.3,44.4,29.74,WNW,296,6.0,18.0,93,0.01,,---,0.02,VWS V14.01,2013-03-23 11:51:00,
2013-03-23 06:54:00,46.3,44.4,29.75,NW,325,5.0,18.0,93,0.01,,---,0.02,VWS V14.01,2013-03-23 11:54:00,
2013-03-23 06:57:00,46.4,44.5,29.76,NW,306,7.0,18.0,93,0.01,,---,0.02,VWS V14.01,2013-03-23 11:57:00,
2013-03-23 07:00:00,46.4,44.5,29.77,WNW,301,1.0,18.0,93,0.01,,---,0.02,VWS V14.01,2013-03-23 12:00:00,
2013-03-23 07:03:00,46.4,44.5,29.77,West,279,0.0,4.0,93,0.01,,---,0.02,VWS V14.01,2013-03-23 12:03:00,
2013-03-23 07:06:00,46.4,44.5,29.77,NW,309,5.0,5.0,93,0.01,,---,0.02,VWS V14.01,2013-03-23 12:06:00,
2013-03-23 07:09:00,46.5,44.6,29.78,NW,304,5.0,8.0,93,0.01,,---,0.02,VWS V14.01,2013-03-23 12:09:00,
2013-03-23 07:16:00,46.5,44.6,29.77,NW,317,6.0,8.0,93,0.01,,---,0.02,VWS V14.01,2013-03-23 12:16:00,
2013-03-23 07:19:00,46.5,44.6,29.77,NNW,342,3.0,8.0,93,0.01,,---,0.02,VWS V14.01,2013-03-23 12:19:00,
2013-03-23 07:25:00,46.5,44.6,29.78,North,350,5.0,8.0,93,0.01,,---,0.02,VWS V14.01,2013-03-23 12:25:00,
2013-03-23 07:28:00,46.5,44.6,29.77,NNW,344,3.0,8.0,93,0.01,,---,0.02,VWS V14.01,2013-03-23 12:28:00,
2013-03-23 07:34:00,46.5,44.9,29.77,NNE,27,2.0,6.0,94,0.01,,---,0.02,VWS V14.01,2013-03-23 12:34:00,
2013-03-23 07:40:00,46.4,44.8,29.76,NNE,28,2.0,6.0,94,0.02,,---,0.03,VWS V14.01,2013-03-23 12:40:00,
2013-03-23 07:43:00,46.4,44.8,29.76,North,10,2.0,6.0,94,0.02,,---,0.03,VWS V14.01,2013-03-23 12:43:00,
2013-03-23 07:49:00,46.4,44.8,29.76,North,5,0.0,6.0,94,0.02,,---,0.03,VWS V14.01,2013-03-23 12:49:00,
2013-03-23 07:52:00,46.4,44.8,29.76,North,11,2.0,6.0,94,0.02,,---,0.03,VWS V14.01,2013-03-23 12:52:00,
2013-03-23 07:58:00,46.3,44.7,29.76,NNE,15,2.0,6.0,94,0.02,,---,0.03,VWS V14.01,2013-03-23 12:58:00,
2013-03-23 08:01:00,46.2,44.6,29.76,NNE,15,0.0,2.0,94,0.01,,---,0.03,VWS V14.01,2013-03-23 13:01:00,
2013-03-23 08:04:00,46.2,44.6,29.76,NNE,15,0.0,3.0,94,0.01,,---,0.03,VWS V14.01,2013-03-23 13:04:00,
2013-03-23 08:07:00,46.3,44.7,29.76,NNE,15,0.0,3.0,94,0.01,,---,0.03,VWS V14.01,2013-03-23 13:07:00,
2013-03-23 08:10:00,46.3,44.7,29.76,NNE,33,4.0,4.0,94,0.01,,---,0.03,VWS V14.01,2013-03-23 13:10:00,
2013-03-23 08:13:00,46.3,44.7,29.76,NNE,32,0.0,4.0,94,0.01,,---,0.03,VWS V14.01,2013-03-23 13:13:00,
2013-03-23 08:17:00,46.4,44.8,29.76,NNE,32,2.0,4.0,94,0.01,,---,0.03,VWS V14.01,2013-03-23 13:17:00,
2013-03-23 08:20:00,46.4,44.8,29.75,ENE,64,4.0,4.0,94,0.01,,---,0.03,VWS V14.01,2013-03-23 13:20:00,
2013-03-23 08:23:00,46.4,44.8,29.75,ENE,68,0.0,4.0,94,0.01,,---,0.03,VWS V14.01,2013-03-23 13:23:00,
2013-03-23 08:29:00,46.5,44.9,29.76,East,84,3.0,5.0,94,0.02,,---,0.04,VWS V14.01,2013-03-23 13:29:00,
2013-03-23 08:35:00,46.7,45.1,29.76,ENE,78,2.0,7.0,94,0.02,,---,0.04,VWS V14.01,2013-03-23 13:35:00,
2013-03-23 08:38:00,46.8,45.2,29.76,ENE,78,2.0,7.0,94,0.02,,---,0.04,VWS V14.01,2013-03-23 13:38:00,
2013-03-23 08:41:00,46.8,45.2,29.75,East,85,2.0,7.0,94,0.02,,---,0.04,VWS V14.01,2013-03-23 13:41:00,
2013-03-23 08:44:00,46.8,45.2,29.75,ENE,63,4.0,7.0,94,0.02,,---,0.04,VWS V14.01,2013-03-23 13:44:00,
2013-03-23 08:47:00,46.9,45.3,29.76,ENE,63,1.0,7.0,94,0.02,,---,0.04,VWS V14.01,2013-03-23 13:47:00,
2013-03-23 08:50:00,47.0,45.4,29.77,ENE,63,0.0,7.0,94,0.02,,---,0.04,VWS V14.01,2013-03-23 13:50:00,
2013-03-23 08:53:00,47.0,45.4,29.77,ENE,63,0.0,7.0,94,0.02,,---,0.04,VWS V14.01,2013-03-23 13:53:00,
2013-03-23 08:59:00,47.1,45.5,29.78,NW,325,2.0,7.0,94,0.02,,---,0.04,VWS V14.01,2013-03-23 13:59:00,
2013-03-23 09:05:00,47.0,45.4,29.77,NNW,329,2.0,3.0,94,0.01,,---,0.04,VWS V14.01,2013-03-23 14:05:00,
2013-03-23 09:08:00,47.0,45.1,29.77,NE,42,1.0,4.0,93,0.01,,---,0.04,VWS V14.01,2013-03-23 14:08:00,
2013-03-23 09:11:00,46.9,45.0,29.77,NE,42,0.0,4.0,93,0.01,,---,0.04,VWS V14.01,2013-03-23 14:11:00,
2013-03-23 09:14:00,46.9,45.0,29.77,NE,42,1.0,4.0,93,0.01,,---,0.04,VWS V14.01,2013-03-23 14:14:00,
2013-03-23 09:20:00,46.9,45.3,29.77,NE,42,2.0,4.0,94,0.01,,---,0.04,VWS V14.01,2013-03-23 14:20:00,
2013-03-23 09:23:00,47.0,45.4,29.77,NE,42,1.0,4.0,94,0.01,,---,0.04,VWS V14.01,2013-03-23 14:23:00,
2013-03-23 09:26:00,47.1,45.5,29.77,NE,42,2.0,4.0,94,0.01,,---,0.04,VWS V14.01,2013-03-23 14:26:00,
2013-03-23 09:29:00,47.2,45.6,29.77,NE,47,1.0,4.0,94,0.01,,---,0.04,VWS V14.01,2013-03-23 14:29:00,
2013-03-23 09:32:00,47.2,45.6,29.77,ENE,64,2.0,4.0,94,0.00,,---,0.04,VWS V14.01,2013-03-23 14:32:00,
2013-03-23 09:35:00,47.3,45.7,29.76,ENE,63,2.0,4.0,94,0.00,,---,0.04,VWS V14.01,2013-03-23 14:35:00,
2013-03-23 09:38:00,47.4,45.8,29.76,East,79,2.0,4.0,94,0.00,,---,0.04,VWS V14.01,2013-03-23 14:38:00,
2013-03-23 09:42:00,47.5,45.9,29.77,ENE,71,3.0,5.0,94,0.00,,---,0.04,VWS V14.01,2013-03-23 14:42:00,
2013-03-23 09:45:00,47.5,45.6,29.76,ENE,67,1.0,5.0,93,0.00,,---,0.04,VWS V14.01,2013-03-23 14:45:00,
2013-03-23 09:48:00,47.6,45.7,29.76,ENE,71,2.0,5.0,93,0.00,,---,0.04,VWS V14.01,2013-03-23 14:48:00,
2013-03-23 09:51:00,47.6,45.7,29.77,ENE,66,3.0,5.0,93,0.00,,---,0.04,VWS V14.01,2013-03-23 14:51:00,
2013-03-23 09:54:00,47.6,45.7,29.77,ENE,70,1.0,5.0,93,0.01,,---,0.05,VWS V14.01,2013-03-23 14:54:00,
2013-03-23 09:57:00,47.6,45.7,29.77,ENE,70,0.0,5.0,93,0.01,,---,0.05,VWS V14.01,2013-03-23 14:57:00,
2013-03-23 10:00:00,47.7,45.8,29.78,NE,51,0.0,5.0,93,0.01,,---,0.05,VWS V14.01,2013-03-23 15:00:00,
2013-03-23 10:06:00,47.7,45.8,29.78,NNW,346,1.0,5.0,93,0.01,,---,0.05,VWS V14.01,2013-03-23 15:06:00,
2013-03-23 10:12:00,47.8,45.9,29.78,NNE,19,2.0,6.0,93,0.01,,---,0.05,VWS V14.01,2013-03-23 15:12:00,
2013-03-23 10:15:00,47.9,46.0,29.78,NNE,19,2.0,6.0,93,0.01,,---,0.05,VWS V14.01,2013-03-23 15:15:00,
2013-03-23 10:18:00,47.9,46.0,29.78,North,5,2.0,6.0,93,0.01,,---,0.05,VWS V14.01,2013-03-23 15:18:00,
2013-03-23 10:24:00,48.0,46.1,29.78,NNE,26,2.0,6.0,93,0.01,,---,0.05,VWS V14.01,2013-03-23 15:24:00,
2013-03-23 10:27:00,48.0,46.1,29.77,NNE,26,1.0,6.0,93,0.01,,---,0.05,VWS V14.01,2013-03-23 15:27:00,
2013-03-23 10:33:00,48.1,46.2,29.77,NE,48,2.0,4.0,93,0.01,,---,0.05,VWS V14.01,2013-03-23 15:33:00,
2013-03-23 10:39:00,48.2,46.3,29.77,ENE,65,2.0,4.0,93,0.01,,---,0.05,VWS V14.01,2013-03-23 15:39:00,
2013-03-23 10:42:00,48.2,46.3,29.77,ENE,72,3.0,4.0,93,0.01,,---,0.05,VWS V14.01,2013-03-23 15:42:00,
2013-03-23 10:45:00,48.3,46.4,29.77,ENE,69,0.0,4.0,93,0.01,,---,0.05,VWS V14.01,2013-03-23 15:45:00,
2013-03-23 10:48:00,48.3,46.4,29.77,ENE,69,1.0,4.0,93,0.01,,---,0.05,VWS V14.01,2013-03-23 15:48:00,
2013-03-23 10:51:00,48.4,46.5,29.78,ENE,69,0.0,4.0,93,0.01,,---,0.05,VWS V14.01,2013-03-23 15:51:00,
2013-03-23 10:55:00,48.7,46.8,29.78,NNE,15,3.0,4.0,93,0.01,,---,0.05,VWS V14.01,2013-03-23 15:55:00,
2013-03-23 10:58:00,48.8,46.9,29.77,NNE,14,2.0,4.0,93,0.01,,---,0.05,VWS V14.01,2013-03-23 15:58:00,
2013-03-23 11:01:00,48.8,46.9,29.77,NNE,14,1.0,4.0,93,0.01,,---,0.05,VWS V14.01,2013-03-23 16:01:00,
2013-03-23 11:04:00,49.0,47.1,29.77,NNE,14,0.0,1.0,93,0.00,,---,0.05,VWS V14.01,2013-03-23 16:04:00,
2013-03-23 11:07:00,49.1,46.9,29.77,NNE,14,3.0,3.0,92,0.00,,---,0.05,VWS V14.01,2013-03-23 16:07:00,
2013-03-23 11:13:00,49.4,47.2,29.77,NNW,340,0.0,3.0,92,0.00,,---,0.05,VWS V14.01,2013-03-23 16:13:00,
2013-03-23 11:19:00,49.6,47.4,29.78,NW,307,0.0,6.0,92,0.01,,---,0.06,VWS V14.01,2013-03-23 16:19:00,
2013-03-23 11:22:00,49.6,47.1,29.77,NW,309,0.0,6.0,91,0.01,,---,0.06,VWS V14.01,2013-03-23 16:22:00,
2013-03-23 11:25:00,49.7,47.2,29.77,NW,311,0.0,6.0,91,0.01,,---,0.06,VWS V14.01,2013-03-23 16:25:00,
2013-03-23 11:28:00,49.8,47.3,29.77,NW,311,0.0,6.0,91,0.01,,---,0.06,VWS V14.01,2013-03-23 16:28:00,
2013-03-23 11:34:00,49.9,47.4,29.78,NNW,327,1.0,4.0,91,0.01,,---,0.06,VWS V14.01,2013-03-23 16:34:00,
2013-03-23 11:37:00,49.9,47.1,29.77,NNE,22,2.0,4.0,90,0.01,,---,0.06,VWS V14.01,2013-03-23 16:37:00,
2013-03-23 11:40:00,49.9,47.1,29.77,NNE,22,0.0,4.0,90,0.01,,---,0.06,VWS V14.01,2013-03-23 16:40:00,
2013-03-23 11:46:00,50.0,47.2,29.78,NNW,348,2.0,4.0,90,0.01,,---,0.06,VWS V14.01,2013-03-23 16:46:00,
2013-03-23 11:49:00,50.1,47.6,29.78,NNW,348,2.0,4.0,91,0.01,,---,0.06,VWS V14.01,2013-03-23 16:49:00,
2013-03-23 11:55:00,50.2,47.4,29.78,North,349,2.0,4.0,90,0.01,,---,0.06,VWS V14.01,2013-03-23 16:55:00,
2013-03-23 12:01:00,50.3,47.5,29.78,NNW,347,0.0,1.0,90,0.01,,---,0.06,VWS V14.01,2013-03-23 17:01:00,
2013-03-23 12:04:00,50.3,47.5,29.78,NNW,347,2.0,2.0,90,0.01,,---,0.06,VWS V14.01,2013-03-23 17:04:00,
2013-03-23 12:10:00,50.5,47.7,29.78,NNW,327,4.0,4.0,90,0.01,,---,0.06,VWS V14.01,2013-03-23 17:10:00,
2013-03-23 12:16:00,50.7,47.6,29.78,NW,321,4.0,5.0,89,0.01,,---,0.06,VWS V14.01,2013-03-23 17:16:00,
2013-03-23 12:19:00,50.7,47.6,29.77,NW,317,2.0,5.0,89,0.01,,---,0.06,VWS V14.01,2013-03-23 17:19:00,
2013-03-23 12:22:00,50.7,47.6,29.77,NNW,335,1.0,5.0,89,0.01,,---,0.06,VWS V14.01,2013-03-23 17:22:00,
2013-03-23 12:26:00,50.7,47.3,29.76,NE,34,0.0,5.0,88,0.01,,---,0.06,VWS V14.01,2013-03-23 17:26:00,
2013-03-23 12:29:00,50.8,47.7,29.76,NE,34,2.0,5.0,89,0.01,,---,0.06,VWS V14.01,2013-03-23 17:29:00,
2013-03-23 12:32:00,51.0,48.2,29.76,NE,34,0.0,0.0,90,0.00,,---,0.06,VWS V14.01,2013-03-23 17:32:00,
2013-03-23 12:35:00,51.3,48.5,29.75,NE,34,0.0,2.0,90,0.00,,---,0.06,VWS V14.01,2013-03-23 17:35:00,
2013-03-23 12:38:00,51.6,48.5,29.75,NNE,17,2.0,3.0,89,0.00,,---,0.06,VWS V14.01,2013-03-23 17:38:00,
2013-03-23 12:41:00,51.8,48.4,29.75,North,5,2.0,5.0,88,0.00,,---,0.06,VWS V14.01,2013-03-23 17:41:00,
2013-03-23 12:44:00,51.9,48.2,29.75,North,5,0.0,5.0,87,0.00,,---,0.06,VWS V14.01,2013-03-23 17:44:00,
2013-03-23 12:47:00,52.0,48.3,29.75,North,9,0.0,5.0,87,0.00,,---,0.06,VWS V14.01,2013-03-23 17:47:00,
2013-03-23 12:53:00,52.3,48.5,29.75,NNE,24,3.0,5.0,87,0.00,,---,0.06,VWS V14.01,2013-03-23 17:53:00,
2013-03-23 12:59:00,52.4,48.7,29.75,NW,321,3.0,5.0,87,0.00,,---,0.06,VWS V14.01,2013-03-23 17:59:00,
2013-03-23 13:05:00,52.6,48.5,29.74,NNW,333,3.0,5.0,86,0.00,,---,0.06,VWS V14.01,2013-03-23 18:05:00,
2013-03-23 13:08:00,52.7,48.6,29.75,NNE,32,3.0,5.0,86,0.00,,---,0.06,VWS V14.01,2013-03-23 18:08:00,
2013-03-23 13:11:00,52.7,48.6,29.74,NNW,348,3.0,5.0,86,0.00,,---,0.06,VWS V14.01,2013-03-23 18:11:00,
2013-03-23 13:14:00,52.7,48.6,29.74,NNW,336,3.0,5.0,86,0.00,,---,0.06,VWS V14.01,2013-03-23 18:14:00,
2013-03-23 13:17:00,52.7,48.6,29.74,NNW,335,0.0,5.0,86,0.00,,---,0.06,VWS V14.01,2013-03-23 18:17:00,
2013-03-23 13:20:00,52.8,48.7,29.74,North,5,5.0,5.0,86,0.00,,---,0.06,VWS V14.01,2013-03-23 18:20:00,
2013-03-23 13:23:00,52.7,48.6,29.74,North,360,3.0,5.0,86,0.01,,---,0.07,VWS V14.01,2013-03-23 18:23:00,
2013-03-23 13:29:00,52.9,49.1,29.73,NNW,341,2.0,5.0,87,0.01,,---,0.07,VWS V14.01,2013-03-23 18:29:00,
2013-03-23 13:32:00,52.9,48.8,29.73,NNW,341,0.0,2.0,86,0.01,,---,0.07,VWS V14.01,2013-03-23 18:32:00,
2013-03-23 13:35:00,52.9,48.8,29.73,North,355,2.0,4.0,86,0.01,,---,0.07,VWS V14.01,2013-03-23 18:35:00,
2013-03-23 13:38:00,53.0,49.2,29.73,NW,325,3.0,5.0,87,0.01,,---,0.07,VWS V14.01,2013-03-23 18:38:00,
2013-03-23 13:41:00,53.0,48.6,29.73,North,355,0.0,5.0,85,0.01,,---,0.07,VWS V14.01,2013-03-23 18:41:00,
2013-03-23 13:44:00,53.0,48.9,29.73,North,355,0.0,5.0,86,0.01,,---,0.07,VWS V14.01,2013-03-23 18:44:00,
2013-03-23 13:47:00,53.0,48.6,29.72,North,355,0.0,5.0,85,0.01,,---,0.07,VWS V14.01,2013-03-23 18:47:00,
2013-03-23 13:54:00,53.1,49.0,29.73,NW,311,2.0,5.0,86,0.02,,---,0.08,VWS V14.01,2013-03-23 18:54:00,
2013-03-23 13:57:00,53.0,48.9,29.72,NW,311,0.0,5.0,86,0.02,,---,0.08,VWS V14.01,2013-03-23 18:57:00,
2013-03-23 14:00:00,53.0,48.9,29.72,NW,311,0.0,5.0,86,0.02,,---,0.08,VWS V14.01,2013-03-23 19:00:00,
2013-03-23 14:03:00,53.0,49.2,29.72,NW,311,0.0,1.0,87,0.02,,---,0.08,VWS V14.01,2013-03-23 19:03:00,
2013-03-23 14:06:00,53.2,49.4,29.72,NW,307,0.0,3.0,87,0.02,,---,0.08,VWS V14.01,2013-03-23 19:06:00,
2013-03-23 14:09:00,53.3,49.5,29.72,NW,315,2.0,5.0,87,0.02,,---,0.08,VWS V14.01,2013-03-23 19:09:00,
2013-03-23 14:15:00,53.3,49.2,29.72,NW,309,2.0,6.0,86,0.02,,---,0.08,VWS V14.01,2013-03-23 19:15:00,
2013-03-23 14:18:00,53.3,49.2,29.72,NW,323,3.0,6.0,86,0.02,,---,0.08,VWS V14.01,2013-03-23 19:18:00,
2013-03-23 14:21:00,53.4,49.6,29.72,NW,325,2.0,6.0,87,0.03,,---,0.09,VWS V14.01,2013-03-23 19:21:00,
2013-03-23 14:24:00,53.5,49.4,29.72,NW,321,2.0,6.0,86,0.03,,---,0.09,VWS V14.01,2013-03-23 19:24:00,
2013-03-23 14:27:00,53.5,49.4,29.72,North,5,4.0,6.0,86,0.03,,---,0.09,VWS V14.01,2013-03-23 19:27:00,
2013-03-23 14:30:00,53.5,49.1,29.72,North,355,1.0,6.0,85,0.03,,---,0.09,VWS V14.01,2013-03-23 19:30:00,
2013-03-23 14:33:00,53.5,49.4,29.72,NNW,348,4.0,5.0,86,0.02,,---,0.09,VWS V14.01,2013-03-23 19:33:00,
2013-03-23 14:39:00,53.4,49.0,29.71,North,355,2.0,6.0,85,0.02,,---,0.09,VWS V14.01,2013-03-23 19:39:00,
2013-03-23 14:45:00,53.5,49.4,29.71,NNW,347,3.0,6.0,86,0.03,,---,0.10,VWS V14.01,2013-03-23 19:45:00,
2013-03-23 14:48:00,53.5,49.1,29.71,NNE,16,2.0,6.0,85,0.03,,---,0.10,VWS V14.01,2013-03-23 19:48:00,
2013-03-23 14:54:00,53.7,49.6,29.71,NNW,346,3.0,6.0,86,0.03,,---,0.10,VWS V14.01,2013-03-23 19:54:00,
2013-03-23 14:57:00,53.8,49.7,29.71,North,360,2.0,6.0,86,0.03,,---,0.10,VWS V14.01,2013-03-23 19:57:00,
2013-03-23 15:00:00,53.9,49.5,29.70,NNW,338,0.0,6.0,85,0.03,,---,0.10,VWS V14.01,2013-03-23 20:00:00,
2013-03-23 15:03:00,54.0,49.3,29.70,NE,38,2.0,4.0,84,0.03,,---,0.11,VWS V14.01,2013-03-23 20:03:00,
2013-03-23 15:06:00,53.9,49.2,29.70,North,10,2.0,4.0,84,0.03,,---,0.11,VWS V14.01,2013-03-23 20:06:00,
2013-03-23 15:09:00,53.9,49.2,29.70,North,5,2.0,5.0,84,0.03,,---,0.11,VWS V14.01,2013-03-23 20:09:00,
2013-03-23 15:12:00,53.8,49.1,29.70,North,5,4.0,6.0,84,0.03,,---,0.11,VWS V14.01,2013-03-23 20:12:00,
2013-03-23 15:15:00,53.8,49.1,29.70,NNE,20,2.0,6.0,84,0.03,,---,0.11,VWS V14.01,2013-03-23 20:15:00,
2013-03-23 15:18:00,53.7,49.0,29.70,NE,44,0.0,6.0,84,0.03,,---,0.11,VWS V14.01,2013-03-23 20:18:00,
2013-03-23 15:24:00,53.9,49.8,29.70,NE,55,1.0,6.0,86,0.03,,---,0.11,VWS V14.01,2013-03-23 20:24:00,
2013-03-23 15:31:00,54.1,49.4,29.69,ENE,63,0.0,6.0,84,0.03,,---,0.11,VWS V14.01,2013-03-23 20:31:00,
2013-03-23 15:34:00,54.2,49.8,29.69,ENE,63,0.0,1.0,85,0.02,,---,0.11,VWS V14.01,2013-03-23 20:34:00,
2013-03-23 15:40:00,54.5,49.8,29.69,North,355,3.0,4.0,84,0.02,,---,0.11,VWS V14.01,2013-03-23 20:40:00,
2013-03-23 15:43:00,54.7,50.3,29.69,NNW,342,0.0,5.0,85,0.02,,---,0.11,VWS V14.01,2013-03-23 20:43:00,
2013-03-23 15:49:00,55.0,50.3,29.69,NW,322,0.0,5.0,84,0.02,,---,0.11,VWS V14.01,2013-03-23 20:49:00,
2013-03-23 15:52:00,55.1,50.0,29.69,North,355,3.0,5.0,83,0.02,,---,0.11,VWS V14.01,2013-03-23 20:52:00,
2013-03-23 15:55:00,55.1,49.7,29.69,NNE,32,2.0,5.0,82,0.02,,---,0.11,VWS V14.01,2013-03-23 20:55:00,
2013-03-23 15:58:00,55.0,49.6,29.69,NNE,32,0.0,5.0,82,0.02,,---,0.11,VWS V14.01,2013-03-23 20:58:00,
2013-03-23 16:01:00,54.9,49.5,29.69,NNE,32,0.0,5.0,82,0.02,,---,0.11,VWS V14.01,2013-03-23 21:01:00,
2013-03-23 16:04:00,55.1,50.4,29.69,NNW,336,1.0,3.0,84,0.01,,---,0.11,VWS V14.01,2013-03-23 21:04:00,
2013-03-23 16:07:00,55.2,50.1,29.68,NNW,336,0.0,4.0,83,0.01,,---,0.11,VWS V14.01,2013-03-23 21:07:00,
2013-03-23 16:10:00,55.3,49.9,29.68,NNW,336,0.0,4.0,82,0.01,,---,0.11,VWS V14.01,2013-03-23 21:10:00,
2013-03-23 16:13:00,55.3,49.9,29.68,NE,34,3.0,5.0,82,0.01,,---,0.11,VWS V14.01,2013-03-23 21:13:00,
2013-03-23 16:16:00,55.3,49.9,29.68,NE,35,0.0,5.0,82,0.01,,---,0.11,VWS V14.01,2013-03-23 21:16:00,
2013-03-23 16:19:00,55.5,50.8,29.68,NE,51,1.0,5.0,84,0.01,,---,0.11,VWS V14.01,2013-03-23 21:19:00,
2013-03-23 16:22:00,55.7,50.3,29.68,ENE,57,5.0,5.0,82,0.01,,---,0.11,VWS V14.01,2013-03-23 21:22:00,
2013-03-23 16:25:00,55.7,50.0,29.68,NNE,30,2.0,5.0,81,0.01,,---,0.11,VWS V14.01,2013-03-23 21:25:00,
2013-03-23 16:28:00,55.7,50.0,29.67,NNE,31,1.0,6.0,81,0.01,,---,0.11,VWS V14.01,2013-03-23 21:28:00,
2013-03-23 16:31:00,55.8,50.1,29.67,NE,51,3.0,4.0,81,0.00,,---,0.11,VWS V14.01,2013-03-23 21:31:00,
2013-03-23 16:34:00,56.1,50.7,29.67,ENE,60,2.0,7.0,82,0.00,,---,0.11,VWS V14.01,2013-03-23 21:34:00,
2013-03-23 16:37:00,56.1,50.0,29.67,ENE,59,2.0,7.0,80,0.00,,---,0.11,VWS V14.01,2013-03-23 21:37:00,
2013-03-23 16:40:00,56.2,50.8,29.67,ENE,59,0.0,7.0,82,0.00,,---,0.11,VWS V14.01,2013-03-23 21:40:00,
2013-03-23 16:43:00,56.4,50.7,29.67,NE,37,4.0,7.0,81,0.00,,---,0.11,VWS V14.01,2013-03-23 21:43:00,
2013-03-23 16:50:00,56.3,50.5,29.66,ENE,74,7.0,8.0,81,0.00,,---,0.11,VWS V14.01,2013-03-23 21:50:00,
2013-03-23 16:56:00,56.2,50.1,29.66,NNE,20,5.0,8.0,80,0.00,,---,0.11,VWS V14.01,2013-03-23 21:56:00,
2013-03-23 17:02:00,56.0,50.3,29.66,NNE,32,2.0,3.0,81,0.00,,---,0.11,VWS V14.01,2013-03-23 22:02:00,
2013-03-23 17:05:00,56.0,49.9,29.67,NE,44,3.0,4.0,80,0.00,,---,0.11,VWS V14.01,2013-03-23 22:05:00,
2013-03-23 17:08:00,55.8,50.1,29.66,NNE,18,3.0,5.0,81,0.00,,---,0.11,VWS V14.01,2013-03-23 22:08:00,
2013-03-23 17:14:00,55.8,50.1,29.66,NE,42,4.0,10.0,81,0.00,,---,0.11,VWS V14.01,2013-03-23 22:14:00,
2013-03-23 17:17:00,55.8,50.4,29.65,NE,51,5.0,10.0,82,0.00,,---,0.11,VWS V14.01,2013-03-23 22:17:00,
2013-03-23 17:23:00,55.9,50.5,29.65,NE,55,3.0,10.0,82,0.00,,---,0.11,VWS V14.01,2013-03-23 22:23:00,
2013-03-23 17:29:00,56.0,50.3,29.65,NE,45,4.0,10.0,81,0.00,,---,0.11,VWS V14.01,2013-03-23 22:29:00,
2013-03-23 17:32:00,56.0,50.3,29.64,NE,49,5.0,7.0,81,0.00,,---,0.11,VWS V14.01,2013-03-23 22:32:00,
2013-03-23 17:38:00,56.1,50.4,29.64,ENE,65,3.0,7.0,81,0.00,,---,0.11,VWS V14.01,2013-03-23 22:38:00,
2013-03-23 17:41:00,56.1,50.0,29.64,NE,43,1.0,7.0,80,0.00,,---,0.11,VWS V14.01,2013-03-23 22:41:00,
2013-03-23 17:44:00,56.0,49.9,29.64,NNE,13,3.0,7.0,80,0.00,,---,0.11,VWS V14.01,2013-03-23 22:44:00,
2013-03-23 17:47:00,55.9,49.8,29.64,NE,43,2.0,7.0,80,0.00,,---,0.11,VWS V14.01,2013-03-23 22:47:00,
2013-03-23 17:50:00,55.9,50.2,29.64,NE,55,5.0,7.0,81,0.00,,---,0.11,VWS V14.01,2013-03-23 22:50:00,
2013-03-23 17:59:00,55.9,49.8,29.64,ENE,59,5.0,8.0,80,0.00,,---,0.11,VWS V14.01,2013-03-23 22:59:00,
2013-03-23 18:05:00,55.7,50.0,29.63,ENE,63,2.0,5.0,81,0.00,,---,0.11,VWS V14.01,2013-03-23 23:05:00,
2013-03-23 18:08:00,55.8,50.4,29.63,East,90,6.0,7.0,82,0.00,,---,0.11,VWS V14.01,2013-03-23 23:08:00,
2013-03-23 18:15:00,55.8,50.4,29.63,ESE,103,3.0,8.0,82,0.00,,---,0.11,VWS V14.01,2013-03-23 23:15:00,
2013-03-23 18:18:00,55.7,50.3,29.63,East,94,5.0,9.0,82,0.00,,---,0.11,VWS V14.01,2013-03-23 23:18:00,
2013-03-23 18:21:00,55.6,50.2,29.63,East,88,8.0,11.0,82,0.00,,---,0.11,VWS V14.01,2013-03-23 23:21:00,
2013-03-23 18:30:00,55.1,50.0,29.63,ENE,75,4.0,11.0,83,0.00,,---,0.11,VWS V14.01,2013-03-23 23:30:00,
2013-03-23 18:33:00,55.1,50.0,29.63,East,80,3.0,8.0,83,0.00,,---,0.11,VWS V14.01,2013-03-23 23:33:00,
2013-03-23 18:39:00,54.8,49.7,29.62,ENE,63,4.0,8.0,83,0.00,,---,0.11,VWS V14.01,2013-03-23 23:39:00,
2013-03-23 18:42:00,54.7,50.0,29.62,East,82,9.0,10.0,84,0.00,,---,0.11,VWS V14.01,2013-03-23 23:42:00,
2013-03-23 18:48:00,54.8,50.1,29.62,East,83,5.0,10.0,84,0.00,,---,0.11,VWS V14.01,2013-03-23 23:48:00,
2013-03-23 18:54:00,54.6,49.9,29.62,ESE,102,3.0,10.0,84,0.00,,---,0.11,VWS V14.01,2013-03-23 23:54:00,
2013-03-23 18:57:00,54.6,49.9,29.62,ESE,117,3.0,10.0,84,0.00,,---,0.11,VWS V14.01,2013-03-23 23:57:00,
2013-03-23 19:00:00,54.5,49.8,29.62,ESE,111,5.0,10.0,84,0.00,,---,0.11,VWS V14.01,2013-03-24 00:00:00,
2013-03-23 19:01:00,54.4,49.7,29.62,ESE,108,5.0,10.0,84,0.00,,---,0.11,VWS V14.01,2013-03-24 00:01:00,
2013-03-23 19:09:00,54.1,49.7,29.62,East,85,6.0,9.0,85,0.00,,---,0.11,VWS V14.01,2013-03-24 00:09:00,
2013-03-23 19:12:00,54.0,49.6,29.62,ENE,77,5.0,9.0,85,0.00,,---,0.11,VWS V14.01,2013-03-24 00:12:00,
2013-03-23 19:15:00,54.0,49.6,29.61,East,90,7.0,9.0,85,0.00,,---,0.11,VWS V14.01,2013-03-24 00:15:00,
2013-03-23 19:18:00,54.0,49.6,29.61,ESE,103,4.0,9.0,85,0.00,,---,0.11,VWS V14.01,2013-03-24 00:18:00,
2013-03-23 19:24:00,53.9,49.8,29.61,ESE,120,7.0,9.0,86,0.00,,---,0.11,VWS V14.01,2013-03-24 00:24:00,
2013-03-23 19:31:00,53.9,49.8,29.61,East,95,5.0,9.0,86,0.00,,---,0.11,VWS V14.01,2013-03-24 00:31:00,
2013-03-23 19:34:00,53.8,49.7,29.61,East,83,5.0,9.0,86,0.00,,---,0.11,VWS V14.01,2013-03-24 00:34:00,
2013-03-23 19:37:00,53.7,49.6,29.62,East,88,5.0,9.0,86,0.00,,---,0.11,VWS V14.01,2013-03-24 00:37:00,
2013-03-23 19:40:00,53.7,49.6,29.61,East,87,7.0,9.0,86,0.00,,---,0.11,VWS V14.01,2013-03-24 00:40:00,
2013-03-23 19:43:00,53.6,49.5,29.61,ENE,74,7.0,9.0,86,0.00,,---,0.11,VWS V14.01,2013-03-24 00:43:00,
2013-03-23 19:46:00,53.5,49.4,29.62,ENE,69,5.0,9.0,86,0.00,,---,0.11,VWS V14.01,2013-03-24 00:46:00,
2013-03-23 19:49:00,53.5,49.7,29.62,ENE,66,5.0,9.0,87,0.00,,---,0.11,VWS V14.01,2013-03-24 00:49:00,
2013-03-23 19:52:00,53.4,49.3,29.62,East,88,7.0,11.0,86,0.00,,---,0.11,VWS V14.01,2013-03-24 00:52:00,
2013-03-23 19:55:00,53.3,49.2,29.62,ENE,75,8.0,11.0,86,0.00,,---,0.11,VWS V14.01,2013-03-24 00:55:00,
2013-03-23 19:58:00,53.2,49.4,29.62,East,79,5.0,11.0,87,0.00,,---,0.11,VWS V14.01,2013-03-24 00:58:00,
2013-03-23 20:04:00,53.1,49.3,29.62,East,79,8.0,9.0,87,0.00,,---,0.11,VWS V14.01,2013-03-24 01:04:00,
2013-03-23 20:07:00,53.0,49.2,29.62,ENE,75,8.0,10.0,87,0.00,,---,0.11,VWS V14.01,2013-03-24 01:07:00,
2013-03-23 20:13:00,52.9,49.1,29.62,East,97,7.0,12.0,87,0.00,,---,0.11,VWS V14.01,2013-03-24 01:13:00,
2013-03-23 20:19:00,52.8,49.3,29.62,East,83,8.0,13.0,88,0.00,,---,0.11,VWS V14.01,2013-03-24 01:19:00,
2013-03-23 20:22:00,52.8,49.3,29.63,ESE,103,5.0,13.0,88,0.00,,---,0.11,VWS V14.01,2013-03-24 01:22:00,
2013-03-23 20:25:00,52.8,49.3,29.63,East,88,3.0,13.0,88,0.00,,---,0.11,VWS V14.01,2013-03-24 01:25:00,
2013-03-23 20:31:00,52.9,49.5,29.64,ENE,68,4.0,13.0,88,0.00,,---,0.11,VWS V14.01,2013-03-24 01:31:00,
2013-03-23 20:37:00,52.9,49.5,29.63,ESE,102,5.0,10.0,88,0.00,,---,0.11,VWS V14.01,2013-03-24 01:37:00,
2013-03-23 20:40:00,52.8,49.3,29.62,ESE,106,5.0,11.0,88,0.00,,---,0.11,VWS V14.01,2013-03-24 01:40:00,
2013-03-23 20:43:00,52.8,49.3,29.62,ESE,121,7.0,11.0,88,0.00,,---,0.11,VWS V14.01,2013-03-24 01:43:00,
2013-03-23 20:50:00,52.7,49.2,29.63,ESE,107,5.0,11.0,88,0.00,,---,0.11,VWS V14.01,2013-03-24 01:50:00,
2013-03-23 20:53:00,52.7,49.2,29.64,ESE,119,4.0,11.0,88,0.00,,---,0.11,VWS V14.01,2013-03-24 01:53:00,
2013-03-23 20:59:00,52.6,49.5,29.64,East,101,6.0,11.0,89,0.00,,---,0.11,VWS V14.01,2013-03-24 01:59:00,
2013-03-23 21:02:00,52.6,49.5,29.64,East,92,6.0,6.0,89,0.00,,---,0.11,VWS V14.01,2013-03-24 02:02:00,
2013-03-23 21:05:00,52.7,49.5,29.64,ESE,113,4.0,9.0,89,0.00,,---,0.11,VWS V14.01,2013-03-24 02:05:00,
2013-03-23 21:14:00,52.7,49.5,29.64,ENE,61,10.0,10.0,89,0.00,,---,0.11,VWS V14.01,2013-03-24 02:14:00,
2013-03-23 21:17:00,52.7,49.5,29.65,East,82,2.0,10.0,89,0.00,,---,0.11,VWS V14.01,2013-03-24 02:17:00,
2013-03-23 21:23:00,52.6,49.5,29.63,ENE,78,7.0,11.0,89,0.00,,---,0.11,VWS V14.01,2013-03-24 02:23:00,
2013-03-23 21:26:00,52.6,49.5,29.65,East,84,5.0,11.0,89,0.00,,---,0.11,VWS V14.01,2013-03-24 02:26:00,
2013-03-23 21:32:00,52.6,49.5,29.67,North,355,5.0,5.0,89,0.00,,---,0.11,VWS V14.01,2013-03-24 02:32:00,
2013-03-23 21:35:00,52.7,49.5,29.69,NNW,333,3.0,7.0,89,0.00,,---,0.11,VWS V14.01,2013-03-24 02:35:00,
2013-03-23 21:38:00,52.7,49.5,29.71,North,355,4.0,8.0,89,0.00,,---,0.11,VWS V14.01,2013-03-24 02:38:00,
2013-03-23 21:44:00,52.8,49.3,29.78,NNW,329,10.0,20.0,88,0.00,,---,0.11,VWS V14.01,2013-03-24 02:44:00,
2013-03-23 21:47:00,52.9,49.5,29.78,NNW,328,11.0,20.0,88,0.00,,---,0.11,VWS V14.01,2013-03-24 02:47:00,
2013-03-23 21:50:00,53.0,49.2,29.77,NNW,327,6.0,20.0,87,0.00,,---,0.11,VWS V14.01,2013-03-24 02:50:00,
2013-03-23 21:53:00,52.9,49.1,29.80,NNW,340,8.0,20.0,87,0.00,,---,0.11,VWS V14.01,2013-03-24 02:53:00,
2013-03-23 21:59:00,52.8,48.7,29.78,North,355,7.0,20.0,86,0.00,,---,0.11,VWS V14.01,2013-03-24 02:59:00,
2013-03-23 22:02:00,52.7,49.0,29.80,North,355,8.0,18.0,87,0.00,,---,0.11,VWS V14.01,2013-03-24 03:02:00,
2013-03-23 22:05:00,52.6,48.5,29.80,NNE,22,12.0,18.0,86,0.00,,---,0.11,VWS V14.01,2013-03-24 03:05:00,
2013-03-23 22:09:00,52.5,48.8,29.80,NNW,333,4.0,18.0,87,0.00,,---,0.11,VWS V14.01,2013-03-24 03:09:00,
2013-03-23 22:12:00,52.4,48.7,29.82,NW,324,7.0,18.0,87,0.00,,---,0.11,VWS V14.01,2013-03-24 03:12:00,
2013-03-23 22:15:00,52.3,48.5,29.81,NW,325,13.0,18.0,87,0.00,,---,0.11,VWS V14.01,2013-03-24 03:15:00,
2013-03-23 22:24:00,51.4,48.0,29.82,NNW,347,7.0,18.0,88,0.00,,---,0.11,VWS V14.01,2013-03-24 03:24:00,
2013-03-23 22:30:00,50.8,48.0,29.83,NNW,337,11.0,18.0,90,0.00,,---,0.11,VWS V14.01,2013-03-24 03:30:00,
2013-03-23 22:33:00,50.5,47.7,29.83,NW,320,10.0,18.0,90,0.00,,---,0.11,VWS V14.01,2013-03-24 03:33:00,
2013-03-23 22:39:00,50.0,47.2,29.84,NW,317,19.0,23.0,90,0.00,,---,0.11,VWS V14.01,2013-03-24 03:39:00,
2013-03-23 22:42:00,49.7,46.9,29.84,North,355,10.0,23.0,90,0.00,,---,0.11,VWS V14.01,2013-03-24 03:42:00,
2013-03-23 22:48:00,49.2,46.1,29.83,North,350,9.0,23.0,89,0.00,,---,0.11,VWS V14.01,2013-03-24 03:48:00,
2013-03-23 22:51:00,49.0,46.2,29.83,North,355,8.0,23.0,90,0.00,,---,0.11,VWS V14.01,2013-03-24 03:51:00,
2013-03-23 22:54:00,48.9,46.1,29.83,NNW,337,18.0,23.0,90,0.00,,---,0.11,VWS V14.01,2013-03-24 03:54:00,
2013-03-23 22:57:00,48.8,45.7,29.83,NNE,12,14.0,23.0,89,0.00,,---,0.11,VWS V14.01,2013-03-24 03:57:00,
2013-03-23 23:00:00,48.7,45.6,29.83,NNW,329,10.0,23.0,89,0.00,,---,0.11,VWS V14.01,2013-03-24 04:00:00,
2013-03-23 23:03:00,48.6,45.5,29.84,North,350,8.0,17.0,89,0.00,,---,0.11,VWS V14.01,2013-03-24 04:03:00,
2013-03-23 23:09:00,48.6,45.5,29.86,NNW,343,10.0,17.0,89,0.00,,---,0.11,VWS V14.01,2013-03-24 04:09:00,
2013-03-23 23:12:00,48.6,45.5,29.86,North,360,6.0,17.0,89,0.00,,---,0.11,VWS V14.01,2013-03-24 04:12:00,
2013-03-23 23:15:00,48.6,45.5,29.86,NNW,346,7.0,17.0,89,0.00,,---,0.11,VWS V14.01,2013-03-24 04:15:00,
2013-03-23 23:18:00,48.5,45.4,29.84,North,351,12.0,17.0,89,0.00,,---,0.11,VWS V14.01,2013-03-24 04:18:00,
2013-03-23 23:21:00,48.4,45.0,29.85,North,355,12.0,17.0,88,0.00,,---,0.11,VWS V14.01,2013-03-24 04:21:00,
2013-03-23 23:24:00,48.3,44.9,29.86,North,355,16.0,17.0,88,0.00,,---,0.11,VWS V14.01,2013-03-24 04:24:00,
2013-03-23 23:28:00,48.3,44.9,29.87,North,351,11.0,17.0,88,0.00,,---,0.11,VWS V14.01,2013-03-24 04:28:00,
2013-03-23 23:31:00,48.2,44.5,29.87,NNW,341,6.0,18.0,87,0.00,,---,0.11,VWS V14.01,2013-03-24 04:31:00,
2013-03-23 23:34:00,48.2,44.8,29.88,NNW,347,5.0,14.0,88,0.00,,---,0.11,VWS V14.01,2013-03-24 04:34:00,
2013-03-23 23:37:00,48.2,44.5,29.88,North,360,11.0,18.0,87,0.00,,---,0.11,VWS V14.01,2013-03-24 04:37:00,
2013-03-23 23:40:00,48.1,44.4,29.88,North,355,19.0,19.0,87,0.00,,---,0.11,VWS V14.01,2013-03-24 04:40:00,
2013-03-23 23:43:00,47.8,44.1,29.88,North,5,20.0,23.0,87,0.00,,---,0.11,VWS V14.01,2013-03-24 04:43:00,
2013-03-23 23:46:00,47.6,43.9,29.89,NNW,333,17.0,24.0,87,0.00,,---,0.11,VWS V14.01,2013-03-24 04:46:00,
2013-03-23 23:52:00,46.1,41.8,29.90,NW,310,10.0,24.0,85,0.00,,---,0.11,VWS V14.01,2013-03-24 04:52:00,
2013-03-23 23:58:00,44.9,41.0,29.91,NNW,342,12.0,27.0,86,0.00,,---,0.11,VWS V14.01,2013-03-24 04:58:00,